User: anonymous   Login
Location: Zagreb
(45.8000°N, 16.0000°E)
Time: 02:57:06
(UTC+01:00)
Language:

DX 1 - Orbit

View from above orbital plane
View from above orbital plane
View from above satellite
View from above satellite

Ground track
Ground track

The orbit data is extracted from the following two-line orbital elements,

1 40071U 14037C   21018.78045212  .00000099  00000-0  20167-4 0  9996
2 40071  98.4574 215.1561 0008787 159.7292 200.4290 14.81442399353134
Epoch (UTC): 18 January 2021 18:43:51
Eccentricity: 0.0008787
inclination: 98.4574°
perigee height: 618 km
apogee height: 631 km
right ascension of ascending node: 215.1561°
argument of perigee: 159.7292°
revolutions per day: 14.81442399
mean anomaly at epoch: 200.4290°
orbit number at epoch: 35313

The dashed part of the orbit path shows where the satellite is in the earth's shadow,  

DLR